This demonstration page uses our WeatherBlox Daily Observations layout. Learn more.

Left ArrowRight Arrow

Hourly Observations for April 25, 2021

Temp ( °F °C ) Dew Point ( °F °C ) Humidity (%) Winds ( mph kmh ) Pressure ( in mb ) Visibility ( mi km ) Precip ( " mm )
12:18 am 00:18 Mostly Cloudy with Light Rain 60 15.6 58 14.4 93 93 WNW 5 7 29.74 1007 10 16 0.00 0.00
12:53 am 00:53 Mostly Cloudy 61 16.1 57 13.9 87 87 W 8 13 29.75 1007 10 16 0.00 0.00
1:53 am 01:53 Cloudy 59 15 55 12.8 87 87 WNW 12 19 29.76 1008 10 16 0.00 0.00
2:46 am 02:46 Cloudy with Light Rain 58 14.4 55 12.8 90 90 WNW 10 17 29.79 1009 10 16 0.00 0.00
2:53 am 02:53 Cloudy with Light Rain 58 14.4 54 12.2 87 87 WNW 8 13 29.77 1008 10 16 0.00 0.00
3:27 am 03:27 Cloudy 57 13.9 52 11.1 83 83 NW 13 20 29.79 1009 10 16 0.00 0.00
3:53 am 03:53 Mostly Cloudy 57 13.9 51 10.6 81 81 NNW 15 24 29.78 1009 10 16 0.00 0.00
4:26 am 04:26 Cloudy 56 13.3 51 10.6 84 84 NW 10 17 29.81 1009 10 16 0.00 0.00
4:53 am 04:53 Cloudy 56 13.3 50 10 81 81 NW 12 19 29.80 1009 10 16 0.00 0.00
5:46 am 05:46 Cloudy 55 12.8 50 10 83 83 NW 10 17 29.84 1011 10 16 0.00 0.00
5:53 am 05:53 Cloudy 55 12.8 50 10 83 83 NW 12 19 29.82 1010 10 16 0.00 0.00
6:53 am 06:53 Cloudy 55 12.8 48 8.9 77 77 NW 13 20 29.84 1011 10 16 0.00 0.00
7:53 am 07:53 Cloudy 55 12.8 48 8.9 77 77 NNW 13 20 29.89 1012 10 16 0.00 0.00
8:53 am 08:53 Sunny 58 14.4 48 8.9 70 70 NW 12 19 29.92 1013 10 16 0.00 0.00
9:53 am 09:53 Sunny 59 15 47 8.3 64 64 NW 15 24 29.94 1014 10 16 0.00 0.00
10:53 am 10:53 Sunny 63 17.2 48 8.9 58 58 N 10 17 29.95 1014 10 16 0.00 0.00
11:53 am 11:53 Sunny 64 17.8 49 9.4 58 58 NNW 13 20 29.97 1015 10 16 0.00 0.00
12:53 pm 12:53 Sunny 67 19.4 49 9.4 53 53 NW 14 22 29.97 1015 10 16 0.00 0.00
1:53 pm 13:53 Sunny 68 20 47 8.3 47 47 NW 13 20 29.97 1015 10 16 0.00 0.00
2:53 pm 14:53 Sunny 68 20 47 8.3 47 47 NNW 16 26 29.96 1015 10 16 0.00 0.00
3:53 pm 15:53 Sunny 68 20 47 8.3 47 47 NW 13 20 29.97 1015 10 16 0.00 0.00
4:53 pm 16:53 Sunny 68 20 46 7.8 45 45 NW 16 26 29.96 1015 10 16 0.00 0.00
5:53 pm 17:53 Sunny 67 19.4 45 7.2 45 45 NW 9 15 29.97 1015 10 16 0.00 0.00
6:53 pm 18:53 Sunny 66 18.9 44 6.7 45 45 NNW 13 20 29.98 1015 10 16 0.00 0.00
7:53 pm 19:53 Sunny 64 17.8 44 6.7 48 48 WNW 7 11 29.99 1016 10 16 0.00 0.00
8:53 pm 20:53 Clear 61 16.1 43 6.1 52 52 NW 3 6 30.00 1016 10 16 0.00 0.00
9:53 pm 21:53 Clear 59 15 45 7.2 60 60 NW 3 6 30.02 1017 10 16 0.00 0.00
10:53 pm 22:53 Clear 57 13.9 45 7.2 64 64 Calm 30.03 1017 10 16 0.00 0.00
11:53 pm 23:53 Clear 54 12.2 44 6.7 69 69 Calm 30.03 1017 10 16 0.00 0.00

Powered by AerisWeather